This is the latest recevied weather packets stored in our database for station/object N3FWE. If no packets are shown the sender has not sent any weather packets the latest 10 day(s).
| Time | Temp. | Humidity | Pressure | Rain* | Wind** | Luminosity | Snow |
|---|---|---|---|---|---|---|---|
| 1788554403 | 30° C | 63% | 1013.6 hPa | 0 mm | - | - | - |
| 1788553803 | 30.56° C | 61% | 1013.5 hPa | 0 mm | - | - | - |
| 1788553205 | 30.56° C | 62% | 1013.6 hPa | 0 mm | - | - | - |
| 1788552603 | 30.56° C | 63% | 1013.6 hPa | 0 mm | - | - | - |
| 1788552004 | 30° C | 64% | 1013.6 hPa | 0 mm | - | - | - |
| 1788551403 | 29.44° C | 64% | 1013.6 hPa | 0 mm | - | - | - |
| 1788550803 | 29.44° C | 64% | 1013.7 hPa | 0 mm | - | - | - |
| 1788550203 | 30° C | 62% | 1013.9 hPa | 0 mm | - | - | - |
| 1788549603 | 30° C | 63% | 1014 hPa | 0 mm | - | - | - |
| 1788549004 | 30.56° C | 62% | 1014 hPa | 0 mm | - | - | - |
| 1788548403 | 31.11° C | 61% | 1014.2 hPa | 0 mm | - | - | - |
| 1788547804 | 30.56° C | 64% | 1014.4 hPa | 0 mm | - | - | - |
| 1788547203 | 30.56° C | 63% | 1014.7 hPa | 0 mm | - | - | - |
| 1788546603 | 30° C | 64% | 1014.9 hPa | 0 mm | - | - | - |
| 1788546003 | 30° C | 63% | 1015 hPa | 0 mm | - | - | - |
| 1788545403 | 29.44° C | 66% | 1015 hPa | 0 mm | - | - | - |
| 1788544804 | 28.89° C | 66% | 1015.1 hPa | 0 mm | - | - | - |
| 1788544203 | 29.44° C | 64% | 1015 hPa | 0 mm | - | - | - |
| 1788543603 | 28.89° C | 64% | 1015 hPa | 0 mm | - | - | - |
| 1788543002 | 29.44° C | 63% | 1015.2 hPa | 0 mm | - | - | - |
| 1788542404 | 30.56° C | 62% | 1015.2 hPa | 0 mm | - | - | - |
| 1788541801 | 30.56° C | 62% | 1015.3 hPa | 0 mm | - | - | - |
| 1788541203 | 30° C | 63% | 1015.3 hPa | 0 mm | - | - | - |
| 1788540601 | 30° C | 63% | 1015.4 hPa | 0 mm | - | - | - |
| 1788540003 | 30° C | 61% | 1015.5 hPa | 0 mm | - | - | - |
* Rain latest hour (hover to see other rain measurements)
** Current wind speed in m/s (hover to see current wind gust speed)